Regional Weather Roundup
Issued by NWS Charleston, SC

Current Version | Previous Version | Graphics & Text | Print | Product List | Glossary On
Versions: 1 2 3 4 5 6 7 8 9 10 11 12 13 14 15 16 17 18 19 20 21 22 23 24 25 26 27 28 29 30 31 32 33 34 35 36 37 38 39 40 41 42 43 44 45 46 47 48 49 50
591
ASUS42 KCHS 180712
RWRCHS

Regional Weather Roundup
National Weather Service Charleston SC
200 AM EST MON DEC 18 2017

NOTE: "fair" indicates few or no clouds below 12,000 feet with no
significant weather and/or obstructions to visibility.

Not all stations are quality controlled. Use data with caution,
especially dewpoint observations.

SCZ027-030-031-034>040-042>050-180800-
...Southeast South Carolina...

CITY           SKY/WX    TMP DP  RH WIND       PRES   REMARKS
N Charleston   CLOUDY    54  52  93 CALM      30.18F
Waterfront Prk   N/A     55  52  89 CALM      30.04S
Mount Pleasant CLOUDY    54  52  94 CALM      30.18S
Johns Island   CLOUDY    57  52  82 CALM      30.18S
Pinopolis        N/A     54  52  94 CALM      30.09F
Moncks Corner  FAIR      54  48  82 CALM      30.17F
Summerville    CLOUDY    54  48  82 CALM      30.18F
Beaufort MCAS  CLOUDY    53  51  93 CALM      30.19S
Beaufort Arpt  PTSUNNY   52  50  93 CALM      30.19R
Hilton Head Is PTCLDY    57  55  94 SW5       30.20R
Walterboro     CLOUDY    54  46  76 CALM      30.19S
Allendale      CLOUDY    57  50  77 CALM      30.16S

...Southern Midlands and Pee Dee...

CITY           SKY/WX    TMP DP  RH WIND       PRES   REMARKS
Georgetown     CLOUDY    52  52 100 CALM      30.19S
Kingstree      CLOUDY    52  45  76 CALM      30.18F
Orangeburg     CLOUDY    54  45  71 CALM      30.17S
Barnwell         N/A     57  48  72 CALM      30.17S
Aiken          CLOUDY    52  39  62 CALM      30.19S
Manning        CLOUDY    52  32  46 MISG      30.18S
Columbia       CLOUDY    54  41  61 CALM      30.16F
Sumter         CLOUDY    53  39  59 CALM      30.15F
Florence       CLOUDY    53  41  63 CALM      30.18F
Myrtle Beach   CLOUDY    55  52  89 CALM      30.20F
N Myrtle Beach CLOUDY    53  50  89 CALM      30.18F

$$

GAZ063-065-086>088-099>101-113>116-118-119-134>141-150-180800-
...Southeast Georgia...

CITY           SKY/WX    TMP DP  RH WIND       PRES   REMARKS
Savannah Arpt  CLOUDY    52  50  93 CALM      30.19S
Hunter AAF     PTCLDY    53  50  91 CALM        N/A
Fort Stewart     N/A    N/A N/A N/A CALM        N/A
Statesboro     CLOUDY    56  49  78 CALM      30.18S
Sylvania       CLOUDY    57  52  84 CALM      30.18S
Claxton        CLOUDY    52  50  95 CALM      30.18S

...CSRA, Central and far Southeast Georgia...

CITY           SKY/WX    TMP DP  RH WIND       PRES   REMARKS
Thomson        CLOUDY    50  44  80 NE5       30.22S
Augusta-Bush   CLOUDY    54  44  69 CALM      30.16S
Augusta-Daniel CLOUDY    55  42  61 CALM      30.17R
Swainsboro     CLOUDY    59  55  88 N5        30.18R
Vidalia        CLOUDY    55  55 100 CALM      30.18R
Eastman        FAIR      60  52  76 CALM      30.19S
Hazlehurst     PTSUNNY   60  58  92 S3        30.17R
Alma           PTCLDY    53  52  96 CALM      30.18R FOG
Waycross       PTCLDY    56  53  91 CALM      30.18R FOG
Jesup          NOT AVBL
Baxley         FOG       54  54 100 CALM      30.17F VSB 3/4
Brunswick        N/A     55  54  94 CALM      30.19S FOG
Saint Simons   CLOUDY    58  57  97 SW3       30.18F

$$

SCZ027-028-034-036>038-045-046-048>050-GAZ119-141-180800-
...Lake and Supplemental Coastal Observations...

STATION/POSITION TIME  TEMP    WIND        PRES    WAVE   SWELL
                       AIR SEA DIR/SP/G            HT/PER HT/PER/DIR
                 (UTC) (F)     (DEG/KT/KT) (MB)    (FT/S) (FT/S/D)
Winyah Bay       NOT AVBL
Lake Murray      0620   51      CALM  /  2 1020.7
ACE Basin NERRS  0545   51        CALM     1022.0
Fort Pulaski     0636      53  230/  1/  2 1022.3R
Sapelo Island    0600   56     200/  3     1022.0

$$

ANZ835-935-AMZ111-154-330-350-352-354-370-450-454-472-180800-
...C-MAN and Buoy Observations...

STATION/POSITION TIME  TEMP    WIND        PRES    WAVE   SWELL
                       AIR SEA DIR/SP/G            HT/PER HT/PER/DIR
                 (UTC) (F)     (DEG/KT/KT) (MB)    (FT/S) (FT/S/D)
Buoy 41004       0650   71 73  230/ 14/ 16 1021.9R   2/10   2/140/10
Buoy 41008       0550   62 59  190/  8/ 10 1022.1    1/10   2/ 90/10
Folly Beach CMAN 0600   55      20/  2/  3 1022.7R
Capers Nearshore 0608   53 55   20/  2/  4 1021.9S


STATION/POSITION TIME  TEMP    WIND        PRES    WAVE   SWELL
                       AIR SEA DIR/SP/G            HT/PER HT/PER/DIR
                 (UTC) (F)     (DEG/KT/KT) (MB)    (FT/S) (FT/S/D)
5E St. Marys GA  0630      61                N/A     1/10
Frying Pan Buoy  0650   63 67   20/  4/  6 1022.1R   2/ 7   2/ 80/ 7
Buoy 41025       0650   58 72  310/ 10/ 14 1022.6R   2/10   2/110/10
Cape Lookout NC  0600          290/  3/  4 1022.9R
Buoy 41002       0550   69 74  220/ 10/ 14 1023.7    2/10   2/130/10
Buoy 41010       NOT AVBL
St Augustine FL  0700   64 65  210/  8/ 10 1022.7F


$$




USA.gov is the U.S. government's official web portal to all federal, state and local government web resources and services.